sat.trackr.live / text

‹ back to catalog

UNKNOWN

NORAD 87211

UNKNOWN UNKNOWN UNKNOWN

§ Identity

Operator
Country
Launch date
Launch site
Launch vehicle
Mass (kg)
RCS (m²)

External: N2YO · Heavens-Above

§ Orbital elements

Epoch: 2026-09-11T07:13:09.079392Z

Period
99.44 min
Inclination
99.0799°
Eccentricity
0.0053017
Mean motion
14.48160742 rev/d
Perigee alt
694.0 km
Apogee alt
769.4 km
Semi-major
7,109.8 km
B*
4.8972e-4
RAAN
279.0846°
Arg perigee
68.4116°
Mean anomaly
352.6255°
Rev number
74,720

§ Raw data

UNKNOWN1 87211U          26254.30079953  .00001805  00000+0  48972-3 0  99902 87211  99.0799 279.0846 0053017  68.4116 352.6255 14.48160742747207

JSON: /api/v1/satellites/87211 · /tle

For live sub-satellite position, see the globe view (requires WebGL).

§ Visibility from observer

Set your observer location to see the next 7 days of passes ≥ 10°. The values pass through the URL so the page stays shareable.

No JS? Fill the form by hand. The geolocation button needs JavaScript.